Regional Weather Roundup
Issued by NWS

Home | Current Version | Previous Version | Text Only | Print | Product List | Glossary Off
Versions: 1 2 3 4 5 6 7 8 9 10 11 12 13 14 15 16 17 18 19 20 21 22 23 24 25 26 27 28 29 30 31 32 33 34 35 36 37 38 39 40 41 42 43 44 45 46 47 48 49 50

000
ASUS45 KABQ 270410
RWRNM
WEATHER ROUNDUP FOR NEW MEXICO
NATIONAL WEATHER SERVICE ALBUQUERQUE NM
900 PM MST MON JAN 26 2015

NOTE: "FAIR" MEANS FEW OR NO CLOUDS BELOW 12,000 FEET AGL WITH NO
       SIGNIFICANT WEATHER OR OBSTRUCTIONS TO VISION.

      THIS PRODUCT IS RELEASED AS TWO VERSIONS.  ONE VERSION NEAR
      THE TOP OF THE HOUR CONTAINING PRELIMINARY DATA FROM ALBUQUERQUE
      AND OTHER STATIONS.  A FINAL VERSION WITH ADDITIONAL DATA IS
      ISSUED ABOUT 10 MINUTES AFTER THE HOUR.

NMZ501-503-504-510>518-270500-
NORTHWEST PLATEAU/NORTHCENTRAL MOUNTAINS

CITY           SKY/WX    TMP DP  RH WIND       PRES   REMARKS
FARMINGTON     CLEAR     40  25  55 E12       30.33R WCI  33
LOS ALAMOS     CLEAR     46  24  40 SW5       30.41S
SANTA FE       PTCLDY    37  25  61 N7        30.37S WCI  32
TAOS           CLEAR     32  25  74 E7        30.41S WCI  26
ANGEL FIRE     FAIR      23  20  89 CALM      30.46S

$$
NMZ402-403-502-505>509-270500-
WESTCENTRAL MOUNTAINS/SOUTHWEST MOUNTAINS

CITY           SKY/WX    TMP DP  RH WIND       PRES   REMARKS
GALLUP         PTCLDY    31  24  75 CALM      30.33S
GRANTS         CLEAR     32  26  76 CALM      30.37S
SILVER CITY    MOCLDY    41  28  60 N5        30.33F

$$
NMZ407-409-411-412-270500-
SOUTHERN DESERTS

CITY           SKY/WX    TMP DP  RH WIND       PRES   REMARKS
LORDSBURG      MOCLDY    46  30  53 SE12      30.28R
DEMING         MOCLDY    47  31  53 NE9       30.30R
LAS CRUCES     MOCLDY    45  35  69 NW6       30.31S
HOLLOMAN AFB   MOCLDY    40  31  69 NE8       30.29S WCI  35
ALAMOGORDO     MOCLDY    41  27  56 NE8       30.31S
T OR C         CLOUDY    46  28  49 NW8       30.31S

$$
NMZ519>523-270500-
CENTRAL VALLEYS/CENTRAL HIGHLANDS

CITY           SKY/WX    TMP DP  RH WIND       PRES   REMARKS
ALBUQUERQUE    PTCLDY    46  28  49 CALM      30.34R
DOUBLE EAGLE   CLEAR     37  25  60 W8        30.35S WCI  31
MORIARTY ARPT  FAIR      33  26  76 N3        30.38S
CLINES CORNERS PTCLDY    42  23  46 S6        30.37S
BELEN          FAIR      41  27  58 W5        30.33F
SOCORRO        FAIR      38  29  68 CALM      30.32S

$$
NMZ524>526-539-540-270500-
SOUTHCENTRAL MOUNTAINS

CITY           SKY/WX    TMP DP  RH WIND       PRES   REMARKS
RUIDOSO        PTCLDY    41  19  42 W5        30.38F

$$
NMZ527>531-270500-
NORTHEAST HIGHLANDS/NORTHEAST PLAINS

CITY           SKY/WX    TMP DP  RH WIND       PRES   REMARKS
LAS VEGAS      CLEAR     39  25  57 SW7       30.38S WCI  34
RATON          CLEAR     38  27  64 NE6       30.35S WCI  33
CLAYTON        PTCLDY    48  30  49 W12       30.28S

$$
NMZ532>537-270500-
EASTCENTRAL PLAINS

CITY           SKY/WX    TMP DP  RH WIND       PRES   REMARKS
TUCUMCARI      PTCLDY    46  33  60 W10       30.26F
CANNON AFB     PTCLDY    46  34  63 NW12      30.27F
CLOVIS AIRPORT CLEAR     45  30  57 NW9       30.27S

$$
NMZ028-029-538-270500-
SOUTHEAST PLAINS

CITY           SKY/WX    TMP DP  RH WIND       PRES   REMARKS
ROSWELL        PTCLDY    42  35  76 W6        30.26F
ARTESIA        PTCLDY    43  37  81 W10       30.28S
CARLSBAD       PTCLDY    44  34  67 NW7       30.25F
HOBBS          CLOUDY    46  32  57 W10       30.26F


$$



USA.gov is the U.S. government's official web portal to all federal, state and local government web resources and services.